Location: Gerlach
(40.6516°N, 119.3568°W)
Time: 05:52:48
(UTC-08:00)

Vanguard 2 - Visible Passes

Search period start: 27 January 2023 00:00
Search period end: 06 February 2023 00:00
Orbit: 554 x 2930 km, 32.9° (Epoch: 26 January)

Date Brightness Start Highest point End Pass type
(mag) Time Alt. Az. Time Alt. Az. Time Alt. Az.
27 Jan 11.1 01:39:04 27° ESE 01:39:04 27° ESE 01:43:38 10° E visible
27 Jan 9.9 03:40:23 59° SSW 03:40:39 59° SSW 03:52:34 10° ESE visible
27 Jan 10.3 05:41:42 19° W 05:50:17 33° SW 05:59:00 10° SSE visible
27 Jan 11.4 21:11:29 10° S 21:13:13 14° S 21:13:13 14° S visible
27 Jan12.023:53:29E23:53:29E23:14:33SWvisible
28 Jan 10.9 01:54:49 32° ESE 01:54:49 32° ESE 02:00:32 10° ESE visible
28 Jan 10.0 03:56:07 53° SW 03:57:26 55° SSW 04:09:09 10° SE visible
28 Jan 10.5 05:57:26 14° W 06:06:34 27° SW 06:14:44 10° S visible
28 Jan 11.3 21:26:55 10° SSW 21:29:14 16° SSW 21:29:14 16° SSW visible
29 Jan 10.7 02:10:34 37° ESE 02:10:34 37° ESE 02:17:22 10° ESE visible
29 Jan 10.1 04:11:54 46° SW 04:14:07 49° SSW 04:25:35 10° SE visible
29 Jan 10.7 06:13:23 10° W 06:22:45 20° SW 06:29:58 10° S visible
29 Jan 11.2 19:40:20 10° SSE 19:43:57 14° SE 19:43:57 14° SE visible
29 Jan 11.3 21:42:43 10° SSW 21:45:18 18° SSW 21:45:18 18° SSW visible
30 Jan 10.6 02:26:22 42° SE 02:26:22 42° SE 02:34:08 10° ESE visible
30 Jan 10.3 04:27:42 39° SW 04:30:39 42° SSW 04:41:49 10° SE visible
30 Jan 11.0 06:32:22 10° WSW 06:38:49 15° SW 06:44:15 10° SSW visible
30 Jan 11.0 19:54:16 10° S 20:00:02 19° SSE 20:00:02 19° SSE visible
30 Jan 11.3 21:58:50 10° SW 22:01:22 18° SW 22:01:22 18° SW visible
31 Jan 11.7 00:40:53 10° E 00:40:53 10° E 00:41:00 10° E visible
31 Jan 10.5 02:42:13 45° SE 02:42:13 45° SE 02:50:48 10° ESE visible
31 Jan 10.5 04:43:32 32° WSW 04:47:04 35° SW 04:57:47 10° SSE visible
31 Jan 10.8 20:09:15 10° S 20:16:07 25° SSE 20:16:07 25° SSE visible
31 Jan 11.3 22:15:09 10° SW 22:17:27 18° SW 22:17:27 18° SW visible
01 Feb 11.6 00:56:45 13° ESE 00:56:45 13° ESE 00:57:55 10° ESE visible
01 Feb 10.4 02:58:05 45° SSE 02:58:05 45° SSE 03:07:22 10° SE visible
01 Feb 10.7 04:59:25 26° WSW 05:03:22 29° SW 05:13:26 10° SSE visible
01 Feb 10.6 20:24:45 10° SSW 20:32:12 31° SSE 20:32:12 31° SSE visible
01 Feb 11.4 22:31:38 10° WSW 22:33:32 16° SW 22:33:32 16° SW visible
02 Feb 11.5 01:12:40 16° ESE 01:12:40 16° ESE 01:14:45 10° ESE visible
02 Feb 10.5 03:14:00 44° S 03:14:00 44° S 03:23:43 10° SE visible
02 Feb 10.9 05:15:20 20° WSW 05:19:33 22° SW 05:28:36 10° S visible
02 Feb 11.0 18:38:52 10° SSE 18:43:54 13° SE 18:46:56 12° ESE visible
02 Feb 10.5 20:40:38 10° SSW 20:48:16 35° S 20:48:16 35° S visible
02 Feb 11.4 22:48:15 10° WSW 22:49:36 15° WSW 22:49:36 15° WSW visible
03 Feb 11.4 01:28:37 19° ESE 01:28:37 19° ESE 01:31:30 10° ESE visible
03 Feb 10.5 03:29:57 40° S 03:29:57 40° S 03:39:53 10° SE visible
03 Feb 11.1 05:31:17 14° WSW 05:35:39 16° SW 05:42:55 10° SSW visible
03 Feb 10.7 18:52:43 10° S 18:59:56 19° SE 19:02:58 18° ESE visible
03 Feb 10.4 20:56:46 10° SW 21:04:19 39° S 21:04:19 39° S visible
03 Feb 11.5 23:04:58 10° WSW 23:05:39 12° WSW 23:05:39 12° WSW visible
04 Feb 11.3 01:44:36 21° SE 01:44:36 21° SE 01:48:09 10° ESE visible
04 Feb 10.7 03:45:57 34° SSW 03:45:57 34° SSW 03:55:46 10° SSE visible
04 Feb 11.3 05:48:37 10° WSW 05:51:42 11° SW 05:54:37 10° SW visible
04 Feb 10.5 19:07:42 10° S 19:16:02 25° SE 19:19:00 24° ESE visible
04 Feb 10.4 21:13:05 10° SW 21:20:20 41° SSW 21:20:20 41° SSW visible
05 Feb 11.3 02:00:37 22° SE 02:00:37 22° SE 02:04:38 10° SE visible
05 Feb 10.8 04:01:58 29° SSW 04:01:58 29° SSW 04:11:17 10° SSE visible
05 Feb 10.3 19:23:16 10° SSW 19:32:15 32° SE 19:34:59 30° ESE visible
05 Feb 10.4 21:29:35 10° WSW 21:36:18 40° SW 21:36:18 40° SW visible
